Vertical_Velocity
-3 -0 -3 1 0 1 1 2 3 -1 -3 -4 -1 1 0 -0 -0 -0 -1 1 -2 2 2 0 0 -1 -0 -1 -0 1 -1 -1 1 2 1 2 2 1 2 0 1 -1 0 1 3 -0 -1 -1 1
-3 -3 -1 -1 -4 1 3 -0 3 2 2 -2 -1 -0 -1 0 -1 -1 -2 -2 1 0 1 1 -1 -1 -1 -1 -1 0 1 1 -0 1 1 2 1 1 1 -1 -1 -0 -1 0 1 1 0 -0 -0
-2 -3 1 -1 -1 -3 1 3 5 -0 1 -1 0 3 -2 -0 1 -2 2 -1 -2 -0 -0 -0 -0 -0 -0 0 -1 -2 -1 -1 -1 1 1 1 1 1 1 -0 -1 0 0 -1 -0 1 -1 0 -1
3 -1 -1 1 1 -2 -1 2 1 -3 -1 -1 -1 0 -1 -1 -2 1 -0 2 -1 -1 -0 -0 -1 -1 -2 0 -1 -1 -0 0 -1 -0 -2 -0 1 1 1 -0 -0 -0 1 1 -0 -0 0 2 2
0 -1 -3 -2 -0 1 1 1 -3 -2 -1 -2 -0 -0 -2 1 -1 -0 -0 0 -0 -1 -0 0 -2 -2 -2 -1 -1 -0 -0 -1 -2 -3 -2 -2 -0 -1 0 -1 -0 -0 -1 -1 3 0 1 -0 1
-4 -2 -1 -1 1 -0 1 -1 -1 3 0 -5 -2 -1 -0 -0 -0 0 1 -1 -1 -0 1 -0 -2 -3 -2 -2 -1 -0 1 0 -1 -2 0 -0 -0 -1 0 1 0 1 1 -1 -0 -1 1 1 1
2 1 1 -1 1 -1 -0 0 -4 2 3 -4 -3 1 -2 -1 -4 5 -1 -2 -3 -2 -1 0 -1 -3 -2 -2 -1 -1 0 -0 0 -0 -0 1 0 0 -1 -0 1 1 2 1 0 -1 -3 -0 1
-2 2 2 -3 -2 2 -2 -0 -3 3 1 -4 -2 -2 1 -5 -2 4 -0 -0 -2 -0 -1 0 -1 -2 -2 -2 -0 0 -0 -2 -1 -1 1 0 1 -1 -3 -2 -2 -2 1 1 2 -0 -1 -2 -1
0 2 -2 -2 -0 1 1 1 1 1 -1 -2 -3 -3 -1 -3 0 0 -0 -2 -2 -0 -0 -0 -2 -1 0 -1 1 -1 3 -1 2 -1 -0 2 0 -1 1 -2 -4 -1 -1 -1 1 1 -0 -1 -1
0 0 -3 0 -0 1 2 -0 -0 1 -0 -2 -6 -2 -0 -1 2 -3 -0 -1 0 0 1 1 0 -1 -1 0 -0 1 -0 3 16 14 6 -1 0 -0 1 1 -2 -3 -0 2 -0 -0 1 0 -1
-1 2 0 -2 -0 0 -1 -0 -0 -0 -1 -3 -4 -2 -1 -0 -2 -3 1 -2 0 1 -0 -2 -2 -0 1 1 -1 1 14 4 2 -5 1 -2 -1 -0 -2 -1 -1 -0 -1 2 4 0 0 -1 -1
-3 1 -3 -1 0 0 -0 -3 0 -1 -0 0 -2 -2 -3 -2 -2 1 2 2 1 -0 -1 -0 -0 0 1 -0 2 6 5 6 3 1 -1 1 2 -2 -1 -2 1 -2 -0 -2 -2 -1 1 -0 -0
-3 1 -1 -1 -1 -2 -2 -2 1 1 2 0 -0 0 -2 -4 -3 0 0 -1 -1 -0 -1 2 2 1 2 1 -1 6 3 1 -2 0 1 2 1 1 1 -0 -1 -1 2 0 -3 -2 0 -0 0
1 0 0 1 -1 -2 -2 -2 0 1 -2 -3 -3 1 -2 -1 -1 -2 1 2 1 0 -1 0 -1 -1 -0 -0 1 9 5 2 -1 -2 -0 1 0 2 1 -1 -2 -1 0 1 -1 -3 -2 -1 0
-1 -1 -0 0 -2 -5 -2 1 -4 0 0 1 -1 -2 -1 2 -1 2 3 3 1 -0 2 2 2 1 1 -0 1 -1 2 3 2 1 -2 -1 -1 -1 1 0 -0 1 -1 0 1 -2 -3 -0 -2
-0 -2 -2 2 -1 -3 -0 0 -3 -2 -2 -2 -4 -3 0 -2 -1 -0 1 1 1 3 2 0 1 -1 0 2 3 6 5 5 1 4 4 1 2 1 0 1 2 3 3 1 2 1 -1 -1 -2
-1 -3 -2 -0 3 1 2 -0 -1 -2 1 -0 -1 0 -2 -0 -2 -0 0 1 -2 -2 -1 1 -0 -1 -3 -2 -3 -5 -1 3 0 -2 1 5 3 0 -0 -2 0 -0 3 3 2 2 -1 -1 -2
1 -1 -1 -3 1 2 5 -1 -1 -4 -2 -0 -1 -3 -2 0 1 2 0 2 1 -2 8 1 1 -3 1 1 -0 2 -1 -2 -4 -1 -2 -1 1 -0 -0 0 0 0 1 3 0 -0 -0 2 -3
3 -1 -6 -2 -5 -0 1 -2 2 -3 -1 3 2 -3 -2 -4 -1 1 0 1 0 5 5 -2 1 4 2 4 1 2 4 4 1 -2 -1 -1 -2 -1 -1 -0 1 3 2 4 -1 -1 -1 0 -0
-3 -2 2 0 -4 -2 2 0 -2 -2 -0 -0 -1 4 0 0 0 -2 -2 0 1 1 -0 0 -0 -5 1 -2 -3 -2 -0 -1 1 1 2 -0 1 -1 -0 0 -0 -2 0 -1 -3 -4 -2 0 1
1 2 5 1 -7 -7 -4 -3 2 -0 1 0 1 -1 4 0 -1 2 2 3 1 -1 -1 2 -1 1 -1 3 0 0 1 1 -6 -1 0 1 -1 0 0 11 12 9 -0 0 1 1 3 2 0
0 5 2 1 -1 -3 -6 -6 -2 0 1 2 1 1 1 -0 1 -0 2 6 1 2 -2 -0 0 5 -3 1 -1 -4 1 -1 4 2 2 3 2 -3 2 3 2 9 6 7 1 -1 0 1 1
3 -11 2 -2 -2 -3 1 -11 -3 1 -1 0 4 -3 -0 2 -1 -1 -0 1 1 -2 0 -0 3 3 -4 -3 2 -2 -2 -2 -1 4 3 -1 0 1 1 2 -0 3 -0 6 1 1 0 1 -1
-1 -2 1 1 -4 -4 -1 -3 -5 -0 -5 -4 4 3 1 3 -0 3 -1 5 8 0 5 11 7 -1 0 -7 1 2 -4 -2 -5 1 5 2 1 -2 2 1 2 1 0 -1 2 5 4 1 6
15 3 -1 -1 -2 4 8 5 -14 -4 -5 -6 1 3 3 1 2 5 -0 2 5 -7 -1 -3 4 7 3 2 -3 6 5 -1 -3 -5 -5 5 9 3 -3 -4 -1 -1 -2 -2 -3 2 -1 -1 7
-32 17 2 -5 -2 2 1 -0 -0 -2 -13 -1 3 -0 3 5 13 -1 -4 3 -7 -12 -14 -0 4 0 4 5 5 -7 11 4 -3 -6 0 1 -1 8 0 2 -1 3 1 -2 1 1 0 -1 -1
-3 -6 3 -1 1 3 6 -2 -3 -4 -8 2 2 4 2 2 -4 9 -7 -9 11 -6 8 -3 -5 0 4 5 -2 -5 9 17 4 7 4 -4 -5 -2 2 -3 -3 -0 1 -1 -4 2 0 -1 -3
-1 -2 -0 -2 -4 -1 -2 -0 0 -4 -8 -5 -0 1 1 -1 0 -6 -0 -2 -2 1 7 10 11 1 3 -1 4 -14 5 2 0 7 4 4 13 40 7 5 1 -2 -1 1 2 -0 0 -2 1
-4 1 4 -3 -1 -4 -5 -1 2 -2 -4 -5 -1 -0 6 -2 1 3 -2 2 -1 -1 2 -2 1 5 3 -1 21 3 -4 -2 5 -24 12 -4 0 -2 5 0 3 0 0 -1 2 0 4 3 -2
-2 1 -2 -2 -1 -1 -1 -1 -1 -3 -2 -1 1 1 -1 -5 -5 -4 -3 -5 -1 -1 -1 11 11 1 12 10 22 11 13 -19 23 4 82 5 5 -0 5 4 7 3 -4 -0 -1 -2 2 2 3
Height
5899 5899 5897 5894 5898 5895 5897 5897 5895 5894 5891 5892 5891 5891 5892 5891 5891 5895 5894 5894 5896 5896 5896 5897 5897 5897 5897 5896 5896 5896 5897 5898 5899 5899 5899 5898 5896 5896 5896 5898 5899 5900 5901 5902 5902 5903 5905 5905 5904
5901 5900 5896 5893 5896 5894 5898 5897 5894 5894 5893 5892 5892 5892 5893 5892 5892 5893 5894 5894 5896 5897 5898 5897 5897 5897 5897 5897 5897 5897 5897 5898 5899 5899 5900 5899 5897 5897 5897 5897 5897 5899 5901 5903 5904 5904 5904 5904 5904
5902 5901 5899 5896 5897 5896 5897 5896 5895 5894 5893 5892 5893 5893 5893 5892 5893 5892 5894 5894 5895 5897 5898 5898 5898 5898 5897 5897 5897 5898 5898 5898 5899 5900 5900 5899 5897 5897 5897 5897 5898 5900 5902 5903 5904 5904 5904 5904 5903
5903 5902 5901 5896 5896 5896 5898 5897 5896 5893 5891 5892 5892 5893 5893 5891 5891 5892 5893 5893 5895 5897 5898 5898 5898 5898 5898 5897 5897 5898 5898 5899 5899 5899 5899 5899 5898 5898 5897 5898 5899 5900 5902 5904 5904 5904 5904 5904 5904
5904 5902 5900 5898 5898 5897 5898 5896 5896 5894 5893 5893 5893 5893 5893 5891 5891 5893 5893 5893 5895 5896 5897 5897 5898 5898 5898 5897 5897 5898 5898 5898 5897 5898 5897 5898 5899 5899 5899 5899 5900 5901 5902 5903 5904 5904 5903 5903 5903
5904 5902 5900 5899 5897 5897 5897 5897 5895 5895 5894 5894 5893 5893 5893 5892 5893 5893 5894 5894 5896 5896 5897 5897 5897 5897 5897 5897 5897 5897 5897 5897 5897 5898 5898 5899 5900 5900 5901 5901 5900 5901 5901 5901 5902 5904 5904 5903 5903
5905 5904 5901 5899 5899 5898 5897 5896 5895 5893 5893 5894 5894 5894 5894 5893 5894 5893 5895 5895 5896 5896 5897 5897 5897 5897 5897 5897 5896 5897 5898 5898 5898 5898 5898 5899 5900 5901 5901 5901 5901 5900 5900 5901 5901 5902 5903 5903 5903
5905 5903 5902 5901 5899 5899 5899 5897 5896 5895 5893 5893 5895 5894 5896 5895 5894 5893 5896 5896 5896 5897 5898 5898 5897 5897 5897 5897 5897 5898 5898 5898 5898 5899 5899 5899 5899 5899 5899 5899 5900 5900 5900 5901 5901 5901 5902 5902 5902
5904 5904 5903 5900 5899 5900 5901 5900 5899 5897 5894 5894 5895 5895 5895 5896 5893 5894 5896 5897 5896 5897 5898 5898 5897 5897 5896 5897 5898 5898 5897 5897 5898 5898 5898 5899 5898 5899 5900 5899 5898 5899 5899 5900 5901 5901 5901 5901 5901
5905 5903 5902 5901 5901 5901 5902 5901 5900 5898 5895 5896 5896 5896 5896 5895 5894 5895 5897 5897 5897 5897 5898 5898 5897 5896 5897 5896 5897 5896 5896 5896 5894 5897 5898 5899 5899 5899 5900 5900 5899 5899 5900 5899 5900 5901 5901 5900 5901
5905 5904 5903 5903 5902 5901 5902 5902 5901 5900 5899 5898 5897 5897 5897 5894 5895 5897 5898 5898 5898 5899 5899 5898 5897 5896 5897 5897 5895 5897 5895 5895 5895 5895 5895 5898 5900 5900 5899 5899 5899 5900 5901 5900 5900 5899 5899 5899 5900
5904 5904 5904 5904 5904 5903 5902 5903 5902 5901 5900 5899 5898 5897 5897 5895 5898 5899 5899 5898 5899 5899 5899 5898 5897 5897 5897 5896 5894 5894 5894 5893 5892 5894 5895 5897 5899 5899 5899 5899 5900 5901 5901 5901 5901 5900 5899 5899 5899
5904 5905 5905 5905 5904 5903 5902 5902 5902 5902 5901 5901 5899 5899 5896 5897 5898 5899 5899 5899 5899 5899 5899 5898 5897 5897 5897 5895 5893 5892 5892 5890 5890 5892 5895 5897 5899 5900 5900 5900 5901 5901 5900 5900 5901 5901 5900 5899 5899
5905 5905 5905 5906 5906 5905 5904 5902 5902 5901 5901 5901 5900 5900 5898 5898 5898 5899 5900 5899 5899 5898 5898 5898 5899 5899 5898 5895 5893 5893 5893 5891 5889 5892 5896 5898 5900 5901 5902 5902 5902 5901 5901 5901 5901 5901 5901 5900 5899
5907 5906 5906 5907 5906 5906 5905 5905 5903 5903 5903 5902 5902 5901 5899 5899 5899 5899 5899 5899 5899 5899 5899 5900 5900 5900 5899 5896 5895 5894 5894 5894 5893 5895 5897 5899 5900 5900 5901 5901 5901 5900 5900 5901 5902 5902 5900 5900 5900
5909 5909 5907 5908 5907 5909 5909 5907 5905 5905 5904 5904 5902 5901 5900 5899 5899 5899 5899 5899 5899 5898 5898 5899 5899 5899 5899 5897 5895 5895 5894 5894 5894 5895 5897 5899 5899 5898 5899 5899 5899 5900 5898 5899 5901 5902 5901 5900 5899
5908 5909 5909 5911 5911 5912 5911 5910 5908 5907 5908 5907 5904 5902 5900 5899 5898 5898 5897 5898 5897 5896 5897 5898 5899 5899 5899 5900 5900 5898 5897 5896 5894 5894 5895 5896 5897 5898 5898 5897 5897 5898 5898 5899 5900 5901 5901 5899 5898
5908 5909 5910 5911 5912 5913 5913 5912 5911 5910 5910 5909 5906 5903 5901 5899 5899 5899 5898 5898 5897 5896 5898 5898 5898 5899 5900 5900 5901 5901 5902 5901 5899 5897 5895 5895 5894 5895 5895 5896 5895 5896 5897 5897 5897 5898 5898 5896 5897
5908 5908 5910 5912 5912 5913 5913 5913 5912 5911 5911 5911 5909 5906 5904 5902 5901 5901 5901 5901 5901 5899 5900 5899 5899 5897 5899 5901 5901 5901 5902 5901 5900 5899 5899 5896 5894 5894 5894 5894 5893 5894 5895 5895 5894 5894 5895 5895 5894
5909 5909 5911 5911 5912 5914 5915 5913 5913 5912 5913 5912 5911 5910 5907 5905 5904 5903 5902 5901 5900 5899 5899 5899 5898 5898 5898 5899 5902 5903 5902 5899 5900 5900 5900 5899 5896 5894 5892 5891 5890 5890 5891 5892 5893 5891 5892 5893 5893
5909 5910 5911 5911 5911 5913 5914 5913 5913 5913 5913 5912 5911 5910 5910 5907 5905 5904 5903 5902 5901 5899 5900 5899 5899 5899 5899 5901 5901 5902 5901 5901 5902 5900 5901 5899 5897 5894 5892 5888 5887 5888 5890 5891 5891 5892 5892 5892 5892
5907 5909 5909 5911 5912 5912 5913 5913 5912 5913 5913 5913 5911 5909 5908 5907 5906 5904 5904 5903 5902 5901 5901 5901 5900 5899 5900 5901 5900 5901 5901 5899 5899 5901 5900 5899 5897 5894 5890 5886 5884 5885 5888 5889 5889 5889 5890 5890 5891
5907 5905 5908 5909 5910 5910 5911 5912 5912 5912 5912 5912 5912 5909 5908 5906 5904 5903 5902 5900 5901 5901 5901 5900 5899 5898 5899 5900 5898 5896 5899 5897 5896 5897 5897 5897 5897 5894 5890 5887 5884 5883 5885 5886 5886 5887 5888 5888 5888
5905 5906 5907 5907 5907 5908 5909 5910 5909 5910 5910 5910 5910 5909 5908 5905 5904 5902 5900 5899 5897 5896 5897 5897 5897 5899 5900 5899 5898 5897 5898 5897 5895 5895 5896 5897 5896 5894 5891 5888 5886 5885 5884 5882 5881 5881 5883 5885 5885
5900 5903 5905 5907 5906 5907 5908 5907 5908 5909 5909 5909 5908 5908 5906 5904 5902 5899 5895 5896 5893 5892 5893 5892 5894 5894 5896 5895 5894 5894 5893 5895 5894 5894 5895 5894 5893 5892 5890 5890 5888 5886 5886 5883 5881 5879 5879 5879 5880
5892 5899 5902 5904 5905 5905 5904 5905 5907 5908 5908 5909 5907 5907 5904 5900 5897 5895 5891 5893 5892 5890 5892 5891 5890 5892 5888 5888 5886 5887 5888 5890 5892 5893 5892 5894 5891 5889 5888 5886 5885 5883 5884 5883 5882 5882 5880 5879 5878
5896 5898 5902 5901 5902 5902 5903 5903 5905 5905 5907 5907 5906 5904 5901 5896 5894 5893 5893 5891 5892 5887 5888 5890 5889 5887 5890 5887 5889 5889 5887 5883 5885 5887 5888 5889 5888 5887 5885 5885 5884 5881 5880 5881 5883 5882 5881 5880 5879
5894 5897 5898 5898 5899 5899 5899 5900 5901 5901 5902 5904 5904 5901 5896 5891 5890 5889 5889 5889 5884 5884 5883 5886 5883 5881 5884 5886 5888 5884 5882 5884 5876 5877 5882 5882 5881 5878 5881 5881 5880 5879 5879 5877 5876 5877 5878 5877 5878
5890 5891 5895 5895 5896 5896 5896 5897 5897 5896 5897 5899 5899 5897 5892 5887 5885 5884 5884 5884 5878 5878 5875 5875 5874 5873 5873 5877 5879 5877 5877 5876 5871 5869 5873 5875 5880 5878 5878 5877 5876 5873 5874 5873 5874 5873 5872 5872 5870
5888 5890 5892 5892 5893 5892 5892 5892 5892 5892 5892 5893 5893 5891 5888 5882 5877 5875 5875 5875 5873 5872 5870 5867 5865 5865 5866 5869 5868 5869 5866 5863 5853 5859 5870 5870 5872 5872 5872 5872 5870 5871 5869 5868 5868 5868 5866 5866 5864